{"data":{"norad_id":67381,"epoch":"2026-09-20T23:28:48.854208Z","epoch_age_seconds":59059,"freshness":"FRESH","line1":"1 67381U 26004U   26263.97834322  .00000382  00000+0  49848-4 0  9993","line2":"2 67381  97.8115 260.9094 0001053 163.6454 196.4796 14.85920614 37514","mean_motion":14.85920614,"eccentricity":0.0001053,"inclination_deg":97.8115,"raan_deg":260.9094,"arg_perigee_deg":163.6454,"mean_anomaly_deg":196.4796,"bstar":4.9848e-5,"rev_number":3751,"period_min":96.909618618428,"perigee_km":609.96179007043,"apogee_km":611.43363866127,"semimajor_km":6988.8347143659,"source":"CELESTRAK","updated_at":"2026-09-21T09:00:16.596134Z"}}